Find Starlink 30370

NORAD ID: 57751 Int'l Des: 2023-131 Owner: SPXS Country: US Constellation: starlink operational
LEOCIRCULAR

Live Position

Loading 3D Globe...

About Starlink 30370

Description loading...

Upcoming Passes

Passes for default location (London). Set your location on the main map for personalized predictions.

Altitude History

Loading altitude history...

Two-Line Element Set

1 57751U 23131V 26133.32872417 .00013330 00000-0 45918-3 0 9994
2 57751 43.0002 151.9741 0000208 353.7529 6.3320 15.29912531149981
Epoch: May 13, 2026 • Age: 13 hours

Current Status

Altitude 475.7 km
Velocity 7.63 km/s
Sub-Earth Point 24.59°N, 2.23°W
Launch Date Sep 1, 2023
Age 2.6 years
Type internet

Technical Details

Classification Payload
Mass 730.00 kg
Dry Mass 700.00 kg
Total Mass 730.00 kg
Length 0.30 m
Diameter 4.10 m
Span 29.00 m
Shape Box + pan
Manufacturer SPXS
Bus Type Starlink V2M
Phase Status In Orbit
Owner/State SPXS/US

Most Searched